SCP
-0 -0 -0 -0 0 0 0 0 0 0 0 0 0 0 0 0 0 0 0 0 0 0 0 0 0 0 0 0 0 0 0 0 0 0 0 0 0 0 0 0 0 0 0
0 0 -0 -0 0 0 0 0 0 0 0 0 0 0 0 0 0 0 0 0 0 0 0 0 0 0 0 0 0 0 0 0 0 0 0 0 0 0 0 0 0 0 0
0 0 0 -0 0 0 0 0 0 0 0 0 0 0 0 0 0 0 0 0 0 0 0 0 0 0 0 0 0 0 0 0 0 0 0 0 0 0 0 0 0 0 0
0 0 0 0 0 0 0 0 0 0 0 0 0 0 0 0 0 0 0 0 0 0 0 0 0 0 0 0 0 0 0 0 0 0 0 0 0 0 0 0 0 0 0
0 0 0 0 0 0 0 0 0 0 0 0 0 0 0 0 0 0 0 0 0 0 0 0 0 0 0 0 0 0 0 0 0 0 0 0 0 0 0 0 0 0 0
0 0 0 0 0 0 0 0 0 0 0 0 0 0 0 0 0 0 0 0 0 0 0 0 0 0 0 0 0 0 0 0 0 0 0 0 0 0 0 0 0 0 0
0 0 0 0 0 0 0 0 0 0 0 0 0 0 0 0 0 0 0 0 0 0 0 0 0 0 0 0 0 0 0 0 0 0 0 0 0 0 0 0 0 0 0
0 0 0 0 0 0 0 0 0 0 0 0 0 0 0 0 0 0 0 0 0 0 0 0 0 0 0 0 0 0 0 0 0 0 0 0 0 0 0 0 0 0 0
0 0 0 0 0 0 0 0 0 0 0 0 0 0 0 0 0 0 0 0 0 0 0 0 0 0 0 0 0 0 0 0 0 0 0 0 0 0 0 0 0 0 0
0 0 0 0 0 0 0 0 0 0 0 0 0 0 0 0 0 0 0 0 0 0 0 0 0 0 0 0 0 0 0 0 0 0 0 0 0 0 0 0 0 0 0
0 0 0 0 0 0 0 0 0 0 0 0 0 0 0 0 0 0 0 0 0 0 0 0 0 0 0 0 0 0 0 0 0 0 0 0 0 0 0 0 0 0 0
0 0 0 0 0 0 0 0 0 0 0 0 0 0 0 0 0 0 0 0 0 0 0 0 0 0 0 0 0 0 0 0 0 0 0 0 0 0 0 0 0 0 0
0 0 0 0 0 0 0 0 0 0 0 0 0 0 0 0 0 0 0 0 0 0 0 0 0 0 0 0 0 0 0 0 0 0 0 0 0 0 0 0 0 0 0
0 0 0 0 0 0 0 0 0 0 0 0 0 0 0 0 0 0 0 0 0 0 0 0 0 0 0 0 0 0 0 0 0 0 0 0 0 0 0 0 0 0 0
0 0 0 0 0 0 0 0 0 0 0 0 0 0 0 0 0 0 0 0 0 0 0 0 0 0 0 0 0 0 0 0 0 0 0 0 0 0 0 0 0 0 0
0 0 0 0 0 0 0 0 0 0 0 0 0 0 0 0 0 0 0 0 0 0 0 0 0 0 0 0 0 0 0 0 0 0 0 0 0 0 0 0 0 0 0
0 0 0 0 0 0 0 0 0 0 0 0 0 0 0 0 0 0 0 0 0 0 0 0 0 0 0 0 0 0 0 0 0 0 0 0 0 0 0 0 0 0 0
0 0 0 0 0 0 0 0 0 0 0 0 0 0 0 0 0 0 0 0 0 0 0 0 0 0 0 0 0 0 0 0 0 0 0 0 0 0 0 0 0 0 0
0 0 0 0 0 0 0 0 0 0 0 0 0 0 0 0 0 0 0 0 0 0 0 0 0 0 0 0 0 0 0 0 0 0 0 0 0 0 0 0 0 0 0
0 0 0 0 0 0 0 0 0 0 0 0 0 0 0 0 0 0 0 0 0 0 0 0 0 0 0 0 0 0 0 0 0 0 0 0 0 0 0 0 0 0 0
0 0 0 0 0 0 0 0 0 0 0 0 0 0 0 0 0 0 0 0 0 0 0 0 0 0 0 0 0 0 0 0 0 0 0 0 0 0 0 0 0 0 0
0 0 0 0 0 0 0 0 0 0 0 0 0 0 0 0 0 0 0 0 0 0 0 0 0 0 0 0 0 0 0 0 0 0 0 0 0 0 0 0 0 0 0
0 0 0 0 0 0 0 0 0 0 0 0 0 0 0 0 0 0 0 0 0 0 0 0 0 0 0 0 0 0 0 0 0 0 0 0 0 0 0 0 0 0 0
0 0 0 0 0 0 0 0 0 0 0 0 0 0 0 0 0 0 0 0 0 0 0 0 0 0 0 0 0 0 0 0 0 0 0 0 0 0 0 0 0 0 0
0 0 0 0 0 0 0 0 0 0 0 0 0 0 0 0 0 0 0 0 0 0 0 0 0 0 0 0 0 0 0 0 0 0 0 0 0 0 0 0 0 0 0
0 0 0 0 0 0 0 0 0 0 0 0 0 0 0 0 0 0 0 0 0 0 0 0 0 0 0 0 0 0 0 0 0 0 0 0 0 0 0 0 0 0 0
Wind_Speed
15 14 14 13 13 13 11 13 13 14 14 15 16 17 18 19 20 19 20 19 21 19 18 18 18 16 12 10 9 8 8 8 7 5 4 6 10 10 8 7 5 6 5
14 14 14 14 14 13 13 13 13 14 14 14 15 17 18 19 20 21 22 21 22 22 21 20 20 15 17 13 11 12 10 9 8 8 6 7 8 10 9 8 6 5 6
13 13 14 14 14 14 14 14 13 13 13 13 15 17 18 18 20 21 21 22 22 22 21 22 21 20 20 15 15 13 11 9 8 7 7 5 5 6 8 7 7 7 6
13 13 13 14 14 15 14 14 13 13 13 13 14 16 17 17 18 19 19 21 21 21 20 21 21 22 22 19 16 15 13 12 10 9 7 6 5 6 7 6 6 6 5
13 13 13 13 13 14 14 14 14 12 12 12 13 14 15 15 15 18 18 19 20 20 19 20 20 20 22 20 15 17 16 14 12 11 9 7 8 8 8 7 6 4 4
12 13 13 13 13 14 14 14 14 13 12 12 12 13 15 13 17 24 21 18 19 20 20 20 18 19 20 27 26 25 24 20 18 14 12 11 12 9 9 8 6 4 4
12 12 12 12 13 13 14 14 14 14 13 13 12 12 14 17 22 25 27 19 19 19 19 17 15 15 18 19 24 28 26 27 24 17 16 14 13 13 12 11 8 6 5
11 11 11 12 13 14 14 15 15 13 13 13 12 13 14 15 21 24 24 22 20 19 18 18 18 18 19 20 18 19 18 19 20 15 11 11 10 12 11 10 8 6 3
13 12 12 12 13 14 14 16 15 14 14 13 13 13 14 14 19 23 24 15 16 19 17 17 18 18 24 29 21 20 18 16 19 18 13 12 15 17 14 9 8 6 4
14 13 13 12 12 14 15 16 14 14 15 14 14 13 14 14 17 22 24 13 15 15 14 14 17 18 24 31 22 20 20 17 15 16 15 15 14 15 17 11 9 8 5
14 14 14 13 13 14 15 15 15 14 15 15 16 14 13 14 17 21 24 14 14 13 13 13 14 25 27 31 26 17 19 17 16 15 13 12 11 10 10 9 8 7 7
14 15 15 14 14 13 15 16 15 15 16 16 15 15 12 11 13 17 23 24 20 14 13 11 12 24 28 30 24 20 23 19 12 12 12 11 11 10 9 8 8 7 6
14 15 15 16 15 15 16 17 16 14 13 13 13 13 12 9 11 18 21 24 25 16 11 15 18 24 26 24 27 26 21 14 12 12 11 10 9 9 9 8 7 6 5
17 18 17 17 18 16 14 14 14 14 14 13 13 13 12 11 9 8 9 11 16 15 11 14 22 24 22 18 18 20 14 12 12 11 10 9 9 9 8 8 7 7 5
20 19 19 18 18 17 16 15 16 16 16 17 14 13 13 13 12 14 11 9 9 9 10 9 10 11 14 12 12 12 12 12 11 10 10 10 10 9 8 7 6 6 5
19 18 16 15 15 15 16 17 23 26 30 33 32 28 20 23 24 23 22 22 18 17 14 11 11 12 13 13 12 12 11 11 11 10 10 10 10 9 9 7 6 6 5
19 19 16 15 15 15 15 15 17 18 25 30 31 32 31 29 28 26 23 21 20 20 13 11 12 12 12 12 12 11 11 11 10 10 10 10 9 9 8 7 6 5 5
19 19 18 15 15 15 15 15 14 15 15 14 18 25 28 28 28 25 23 18 13 15 11 11 11 11 11 11 11 11 10 11 10 10 10 9 9 9 8 7 6 6 4
18 15 14 14 14 14 14 14 14 16 15 14 14 16 19 22 22 22 21 12 10 11 10 10 9 9 10 10 10 10 11 11 11 10 10 10 8 8 7 6 5 6 5
15 20 19 15 14 13 13 13 13 13 13 13 13 12 11 10 9 10 11 10 9 8 9 9 9 9 10 10 10 10 10 10 11 10 9 9 8 7 7 7 6 5 5
14 16 19 15 13 12 12 12 12 12 12 12 13 14 18 10 8 8 6 7 6 7 9 9 10 10 10 9 9 11 12 10 10 9 9 8 8 6 5 5 5 5 4
13 13 12 12 11 10 10 10 11 11 12 13 12 12 16 10 6 3 2 4 6 7 9 10 10 9 9 10 10 11 11 11 10 10 9 8 7 6 6 5 5 4 5
13 13 12 11 9 10 9 9 9 10 10 10 10 7 5 3 2 4 6 7 8 9 9 9 10 9 9 8 8 9 10 10 9 10 10 9 7 6 6 5 6 5 5
12 12 12 10 8 7 7 7 7 7 7 6 4 2 2 4 5 7 7 8 8 8 8 8 9 13 14 10 8 7 8 9 9 8 10 9 8 6 5 5 5 6 6
11 11 10 9 8 7 6 6 5 5 4 4 4 4 5 6 7 7 7 8 9 9 10 10 9 11 14 14 11 9 11 13 10 8 7 6 7 6 5 5 5 5 6
11 11 10 9 8 8 7 7 7 7 6 6 6 6 6 6 7 7 7 7 8 9 9 8 11 12 13 11 12 12 12 11 10 9 6 5 6 5 6 5 7 6 7
Wind_Direction
356 353 351 349 342 333 320 307 292 277 262 247 235 228 224 221 218 218 219 216 214 212 209 207 205 198 194 191 186 185 188 191 189 155 160 164 175 183 188 207 227 241 244
348 346 346 346 346 342 333 322 308 292 274 256 243 234 228 223 220 219 220 218 215 213 210 208 207 199 199 193 190 192 190 189 187 173 166 173 187 190 196 208 219 234 245
341 340 341 343 343 341 337 330 320 306 288 268 250 241 234 227 223 221 221 221 219 217 213 211 207 200 201 196 193 191 187 182 185 172 163 165 176 184 196 208 219 229 237
333 332 334 337 335 333 331 329 325 316 302 284 261 248 241 234 227 224 223 224 223 221 218 215 209 204 203 196 193 190 180 177 179 179 169 168 172 172 189 199 204 211 226
324 325 327 328 328 327 327 326 323 318 308 295 278 260 248 240 232 228 225 225 224 223 220 218 215 210 206 198 192 188 180 179 179 184 183 176 182 175 191 185 197 200 233
313 314 317 320 322 322 322 321 320 318 313 303 288 272 257 245 237 231 227 225 225 224 222 219 215 210 205 203 201 194 188 183 182 183 187 193 192 184 171 173 176 184 218
300 303 308 313 314 315 316 316 317 316 311 304 295 284 271 259 248 240 230 226 227 226 223 218 214 210 204 205 206 202 201 201 191 185 188 191 182 179 171 175 182 185 191
289 292 298 304 306 309 311 310 312 311 307 302 296 288 280 270 259 249 238 229 230 229 224 219 215 208 202 198 196 198 200 203 200 194 193 184 172 163 168 168 169 182 221
284 287 291 296 298 302 303 304 306 305 302 298 293 286 279 274 265 256 246 235 232 230 226 220 215 211 204 198 193 194 194 199 201 189 183 171 164 160 159 155 163 170 203
285 287 289 289 288 291 293 296 296 296 293 293 289 284 278 274 268 260 249 239 234 229 223 218 212 209 204 198 195 192 192 188 180 177 176 172 170 172 175 176 173 179 181
291 288 286 286 288 288 290 290 291 291 290 288 285 281 274 268 266 261 252 239 235 229 221 215 213 209 206 203 198 197 193 176 175 172 171 171 170 172 178 179 182 185 186
296 292 292 293 292 290 290 289 288 286 284 282 281 280 272 263 256 256 253 247 239 230 222 211 206 205 204 203 199 196 188 172 170 170 170 171 170 170 170 171 176 188 202
302 296 295 294 290 288 286 285 285 280 276 276 276 276 276 266 258 255 254 253 248 236 219 202 196 200 201 202 199 190 181 173 170 171 173 171 166 157 152 155 163 177 208
301 298 295 293 289 286 282 278 276 274 272 272 272 272 273 268 259 251 249 250 249 235 212 194 193 197 197 192 189 185 179 174 171 169 163 154 146 147 153 156 162 168 187
298 295 293 288 286 285 279 273 273 267 265 269 271 271 272 270 262 254 249 245 234 207 175 169 177 184 190 184 178 175 170 162 162 155 151 149 150 150 153 156 160 165 180
294 293 290 288 286 283 282 281 274 271 273 270 266 264 265 262 267 265 259 253 237 199 175 176 180 184 184 178 170 165 163 161 157 152 151 152 153 154 154 156 162 173 187
288 288 286 283 281 279 279 280 284 283 278 277 273 269 265 263 261 257 254 252 234 202 189 185 184 183 178 173 165 162 161 157 152 152 151 151 150 152 153 157 165 175 190
287 285 281 278 276 274 273 274 276 280 285 282 279 276 272 266 260 251 244 240 226 205 194 188 183 178 171 168 164 159 153 149 149 149 148 148 149 150 153 159 167 178 191
287 282 278 276 273 270 270 270 270 272 274 279 281 279 274 271 264 250 234 223 216 202 188 182 175 165 159 158 156 153 151 151 149 146 145 145 147 148 152 159 168 179 198
287 283 281 276 272 269 265 264 265 267 271 273 274 275 275 267 256 244 221 208 205 191 174 165 155 146 145 147 147 147 146 145 145 142 141 142 145 151 156 165 176 187 202
292 289 286 280 273 268 266 264 264 266 269 271 273 273 272 267 259 249 219 195 181 165 153 145 137 136 136 139 142 146 146 144 143 141 140 142 146 151 159 169 181 197 215
296 294 292 287 281 273 268 265 265 266 268 270 273 277 279 273 260 247 160 121 115 121 127 129 129 132 138 144 146 146 145 144 142 140 140 142 148 154 161 174 188 204 218
306 305 303 299 292 285 277 271 268 268 269 272 275 280 290 312 40 83 90 93 98 106 114 120 124 125 125 131 139 143 144 145 145 145 145 147 153 160 169 181 193 209 227
314 315 315 313 308 300 295 291 286 283 283 286 300 341 31 58 70 81 87 93 98 102 107 114 122 130 129 123 117 114 116 123 129 139 145 149 154 160 170 187 206 219 236
325 326 328 329 329 327 324 323 327 331 343 2 24 46 60 69 76 80 85 91 97 100 105 108 114 121 123 120 116 115 123 123 124 127 137 146 157 166 179 199 216 230 242
337 340 342 345 348 350 353 357 3 10 19 28 39 50 59 69 77 82 87 93 97 98 98 99 109 114 116 113 119 124 129 135 141 146 147 156 168 183 192 212 226 238 252